Theta_e
317 311 309 309 306 305 304 304 305 306 307 307 308 308 308 309 309 308 308 308 308 308 308 308 307 307 307 306 307 308 306 303 298 297 300 302 302 299 298 299 300 303 302
317 311 309 309 306 305 304 304 305 306 307 307 308 308 308 309 309 308 307 308 308 308 308 308 307 309 306 307 307 304 303 302 302 298 298 298 299 299 295 295 296 297 298
316 311 309 306 305 304 303 304 305 306 306 307 308 307 308 308 309 308 308 308 308 309 309 308 307 306 303 303 303 301 299 300 301 300 297 297 298 297 293 292 292 292 294
313 311 309 305 305 304 303 304 304 306 306 307 307 308 308 309 309 308 308 307 308 308 309 309 308 307 304 302 301 299 299 298 299 299 297 295 295 293 292 290 286 285 290
311 310 307 305 305 303 303 303 304 305 306 307 307 307 307 308 309 308 308 308 308 307 308 308 307 302 298 301 302 300 299 298 297 297 295 293 291 287 289 287 284 285 288
309 308 306 304 303 302 302 302 304 304 305 306 306 306 306 307 300 301 305 307 308 308 307 306 303 294 297 297 298 299 300 298 296 294 295 294 292 289 285 288 286 287 289
307 307 305 303 302 302 302 302 302 303 305 305 305 306 305 305 299 299 299 307 307 308 308 304 300 300 297 299 297 297 296 298 298 296 294 293 291 290 289 287 288 288 288
306 305 304 303 301 301 301 301 302 303 304 305 305 306 305 304 298 298 297 306 306 308 306 302 302 298 299 300 299 298 298 298 297 298 297 296 296 293 293 294 293 287 286
303 304 303 303 301 300 300 300 302 303 303 304 305 304 304 301 296 297 302 304 302 303 304 300 300 299 294 296 299 296 295 294 294 295 296 296 295 294 293 292 286 287 286
302 303 303 302 300 300 300 300 301 303 302 302 302 304 298 301 295 296 302 303 301 301 300 296 291 299 293 296 299 296 291 291 291 291 292 292 293 293 292 296 291 287 286
299 300 301 301 300 300 299 299 300 300 300 300 300 300 300 301 297 297 299 302 301 300 300 294 294 294 294 296 298 298 296 291 291 290 289 287 287 290 288 290 293 289 287
296 295 295 297 299 299 299 298 297 298 297 296 294 292 289 296 293 295 297 298 299 300 296 293 294 294 295 296 296 295 293 291 290 288 288 287 287 287 287 287 288 286 286
292 291 292 292 293 297 298 296 296 296 295 295 296 296 292 288 294 294 295 296 296 295 295 295 294 294 295 296 295 293 289 291 290 288 289 288 287 287 287 286 286 286 286
289 290 290 292 291 292 294 296 296 295 294 293 294 296 293 291 293 293 291 295 292 292 292 293 293 293 295 294 289 291 290 292 292 292 289 286 286 286 286 285 286 285 286
288 288 288 290 292 291 292 293 294 296 296 295 295 296 294 292 293 295 294 294 294 290 289 288 288 288 289 288 288 288 288 288 289 288 287 287 286 286 285 285 285 285 286
287 286 287 288 289 290 291 289 291 292 292 293 294 295 289 295 293 293 293 293 293 291 287 287 287 290 290 289 289 288 287 288 288 288 288 288 287 287 286 285 285 285 286
287 287 287 287 288 288 288 291 289 288 292 292 292 292 293 292 292 293 293 293 293 293 288 289 290 290 290 290 290 288 288 289 288 289 289 288 287 286 286 286 285 285 285
285 286 286 287 288 288 288 288 289 291 290 288 289 291 291 292 293 293 293 293 289 289 288 289 289 290 290 290 289 289 287 288 288 289 288 288 287 287 286 286 286 286 286
285 285 285 286 287 287 287 287 288 287 287 286 286 288 288 291 292 293 292 292 290 290 290 290 290 289 289 289 289 289 289 288 289 288 288 287 287 287 287 287 287 286 286
284 284 286 286 286 286 287 287 287 287 287 287 287 287 286 287 288 288 289 290 290 290 290 291 290 290 289 290 289 288 288 288 288 288 288 288 287 288 288 287 287 286 286
283 283 285 285 285 285 286 286 286 286 287 287 287 286 289 289 288 288 288 289 289 289 289 290 290 289 289 289 289 289 289 289 288 288 288 287 287 287 287 288 287 286 286
283 283 284 284 285 285 285 286 286 286 286 286 286 287 290 288 287 288 288 288 288 288 289 289 290 289 289 290 290 289 289 289 288 288 288 287 287 287 287 287 286 286 286
283 283 284 284 285 285 285 285 285 286 286 286 286 286 287 287 287 287 287 287 287 288 288 288 289 287 288 290 290 291 290 289 289 289 288 287 287 287 287 287 286 286 286
283 283 283 284 284 284 284 285 285 285 286 286 286 286 286 286 286 287 287 287 288 287 288 289 289 289 289 288 289 289 290 289 288 289 289 288 287 287 287 287 287 287 286
283 283 283 284 284 284 284 285 285 285 285 285 286 286 286 287 287 287 287 287 287 287 288 288 288 289 289 289 289 288 288 287 289 288 288 288 288 287 287 287 287 286 286
283 283 283 284 284 285 285 285 285 285 285 285 286 286 286 286 287 287 287 287 287 288 288 288 288 288 288 288 288 288 287 286 287 287 288 288 287 287 287 287 286 286 286
Wind_Speed
21 19 18 16 16 14 13 13 14 14 14 14 12 11 10 9 8 7 6 6 9 9 6 9 8 7 6 4 4 5 5 5 8 2 2 2 3 5 5 5 5 6 5
20 19 18 16 16 16 14 14 14 14 13 14 13 12 11 10 9 10 8 7 10 12 9 10 10 8 7 5 5 6 5 4 7 12 3 1 3 4 3 5 4 4 5
20 19 18 16 17 17 16 15 15 14 14 13 13 12 12 10 9 8 8 9 8 11 11 11 10 10 6 5 6 6 5 5 6 7 5 2 2 2 4 4 3 4 3
18 19 18 18 18 16 16 16 15 15 15 14 13 12 12 11 10 9 8 8 8 8 9 9 10 10 10 9 7 8 7 7 7 7 4 3 2 1 2 2 2 3 2
17 18 17 17 16 15 16 16 14 14 14 14 13 11 11 11 9 10 9 10 10 9 8 8 8 8 11 10 9 8 10 7 8 9 6 3 2 1 2 1 2 1 2
16 16 15 16 16 16 16 16 15 14 14 13 13 13 12 8 13 14 11 10 10 11 10 7 7 9 10 12 10 10 12 14 9 6 7 7 6 3 3 3 3 2 2
14 14 15 16 17 16 16 15 15 15 14 14 13 13 12 9 16 16 13 9 10 10 10 8 7 5 8 7 8 10 8 6 6 6 7 5 5 7 6 3 2 2 2
12 13 14 16 16 15 16 16 15 14 16 14 13 13 12 9 16 16 14 9 8 9 9 9 10 9 8 9 8 7 6 5 6 4 5 5 3 7 5 4 4 4 2
10 12 13 15 16 16 16 16 14 14 13 13 12 12 13 8 15 16 13 9 8 7 7 7 9 10 11 13 10 9 7 4 6 9 8 8 10 12 9 6 2 3 1
7 10 12 13 14 16 15 16 13 13 13 10 11 11 10 11 14 16 12 8 10 7 6 6 9 11 15 14 11 10 8 5 6 6 5 7 6 7 9 3 6 3 2
7 7 9 11 13 13 12 10 12 12 11 11 11 8 10 12 11 16 15 9 8 8 7 5 5 14 15 13 11 9 8 9 7 6 5 3 3 4 2 3 5 3 2
7 8 8 9 8 9 13 10 10 12 12 10 9 6 3 7 11 13 15 11 11 9 8 5 6 15 15 12 10 11 14 10 6 5 4 2 2 2 2 2 4 4 2
6 7 7 8 8 10 12 11 10 10 10 9 9 9 6 3 6 12 14 15 14 7 6 9 12 15 16 11 12 15 12 7 7 4 4 4 3 3 4 4 4 4 3
6 6 6 9 7 7 6 9 10 10 9 9 9 9 7 6 6 6 4 7 10 7 11 7 8 8 9 8 6 9 5 6 7 7 4 3 3 3 2 2 2 2 2
4 5 5 5 8 7 6 6 8 8 12 13 11 10 12 9 9 14 13 8 6 7 8 5 3 4 6 5 3 4 4 4 5 4 4 4 3 3 2 2 1 2 2
4 3 3 4 4 5 6 5 10 6 7 6 10 10 4 7 15 17 15 15 16 17 4 4 3 6 7 7 6 5 4 5 4 4 4 5 5 5 4 2 1 2 3
3 3 3 3 4 5 4 6 6 5 6 9 11 12 14 12 18 18 18 16 19 14 4 4 6 7 6 7 7 6 6 6 5 5 5 6 5 4 6 4 2 2 2
3 3 2 3 3 4 4 4 4 7 8 3 1 8 12 17 20 18 19 15 6 1 4 6 7 8 7 7 6 6 4 5 5 5 5 6 6 5 4 5 6 4 3
3 2 2 2 2 3 3 4 4 4 3 3 2 4 6 13 19 21 20 9 9 8 6 6 7 7 7 6 7 6 7 7 7 7 6 6 6 6 5 5 6 7 5
2 2 3 2 1 2 3 4 4 5 5 5 4 4 5 5 7 9 9 9 9 8 8 9 7 8 9 9 8 7 6 6 7 7 7 7 7 7 7 7 6 6 5
1 1 2 2 1 1 2 3 4 4 4 4 4 4 9 7 8 8 9 9 8 8 9 9 7 7 7 7 8 8 8 7 7 7 7 7 7 7 6 6 6 5 6
3 1 1 2 2 2 2 2 3 3 4 4 3 5 16 6 6 6 7 7 7 6 6 7 7 8 9 10 9 9 9 9 8 8 8 7 7 7 6 6 7 6 7
3 1 1 3 3 3 3 2 2 3 3 3 4 4 6 5 6 7 7 6 6 6 5 6 6 5 5 7 8 9 10 11 10 9 9 8 8 8 8 7 8 8 8
3 2 2 2 1 1 2 4 2 3 3 4 4 4 5 5 5 6 6 6 7 7 8 8 8 9 8 8 8 8 8 7 8 10 11 9 9 9 8 8 9 10 9
4 3 3 4 4 3 3 3 3 3 3 3 4 4 4 5 6 6 6 7 7 8 9 8 8 10 12 14 11 11 10 11 11 11 9 10 11 13 11 9 10 10 10
5 5 4 4 5 5 5 5 5 4 4 4 3 5 6 6 6 6 6 7 7 8 9 8 9 13 13 12 13 14 13 13 13 15 10 10 10 9 9 11 14 10 12
Wind_Direction
178 170 175 175 171 166 171 169 166 161 163 164 167 165 164 158 151 143 156 151 134 130 133 137 129 133 138 130 121 115 115 111 123 88 100 50 67 85 56 49 48 67 69
175 171 173 170 168 167 170 168 163 162 163 164 165 165 162 161 154 152 156 160 147 140 140 135 140 142 133 133 129 122 122 113 136 141 112 102 83 56 59 63 38 38 54
174 169 170 167 168 169 165 164 164 160 161 163 163 162 163 161 157 154 156 158 153 146 149 148 150 140 131 131 124 122 121 116 136 143 129 113 106 91 55 38 35 37 51
169 169 169 169 171 168 162 161 161 161 159 161 165 161 161 159 155 157 158 156 151 147 152 152 156 151 146 144 132 132 128 125 129 138 121 90 80 56 117 116 8 7 5
166 169 168 166 164 159 158 160 159 160 163 162 158 158 157 160 161 159 160 161 154 151 152 152 161 148 148 152 147 147 137 134 140 149 149 128 156 159 163 156 110 334 307
163 166 163 159 157 159 158 158 158 160 161 159 161 159 160 166 159 156 156 159 155 157 160 154 145 139 148 149 134 151 158 152 156 148 165 183 192 186 154 153 126 119 242
159 163 161 160 160 159 159 159 161 162 157 161 159 161 165 161 162 158 152 156 155 158 157 152 147 148 142 145 135 137 131 109 133 146 156 176 162 179 142 121 139 151 186
158 162 161 161 160 158 158 163 161 160 163 164 164 164 160 165 163 160 151 149 153 160 145 161 157 156 150 150 141 133 135 133 142 131 153 162 164 152 151 163 154 107 53
157 158 160 162 158 159 161 161 162 159 158 164 166 163 164 159 164 158 151 151 152 158 144 152 153 155 155 149 141 131 120 92 61 87 91 117 131 140 141 116 109 105 240
146 155 157 161 160 165 164 164 160 160 158 155 162 169 160 160 167 160 152 153 154 153 148 149 156 159 159 154 147 146 140 163 136 97 71 64 96 129 139 111 151 146 151
126 128 147 158 161 162 156 155 156 152 150 156 157 158 158 164 172 161 150 155 156 157 168 162 169 155 162 159 149 159 165 148 141 125 118 110 92 136 132 124 163 140 147
130 129 133 138 145 149 151 150 148 149 148 150 145 135 139 157 164 171 155 143 150 155 166 167 170 165 164 156 151 133 134 125 131 131 125 129 134 162 184 146 135 106 72
131 138 139 131 136 150 150 148 145 149 153 155 161 166 168 148 158 163 159 150 148 139 163 174 161 164 160 152 145 142 143 144 144 140 167 179 183 160 126 113 74 83 76
122 128 130 138 131 131 143 158 156 156 156 159 164 171 162 156 160 162 151 151 147 139 153 150 153 148 152 148 126 148 153 157 165 175 168 104 116 123 137 125 130 138 119
84 103 106 114 137 131 129 152 166 178 171 167 177 171 164 175 189 175 172 161 153 144 117 107 117 121 143 140 130 146 138 144 160 154 140 148 143 136 143 141 124 135 165
94 79 96 110 110 121 132 102 47 105 127 114 141 165 170 147 151 160 155 149 147 143 100 134 146 162 164 161 163 168 159 177 178 155 145 153 165 173 158 146 149 151 166
125 126 108 103 122 131 123 145 139 37 133 158 161 153 167 165 157 161 163 161 156 147 125 155 161 174 176 173 169 168 175 190 161 172 163 168 151 155 158 173 152 138 156
71 94 97 113 126 130 142 139 138 161 167 161 135 164 171 161 169 169 165 151 160 175 148 165 172 177 176 179 174 174 160 155 174 175 172 167 171 159 163 180 185 176 156
66 82 75 82 105 115 120 131 139 133 131 126 98 65 158 165 172 178 166 179 184 189 183 174 173 173 181 178 177 176 175 176 180 174 182 176 175 171 185 184 186 185 151
32 100 121 101 123 120 137 144 151 161 164 167 168 165 136 117 169 174 183 187 182 185 186 192 189 185 182 181 177 173 174 174 178 182 183 181 177 185 191 183 182 178 186
47 80 137 116 143 160 154 161 157 158 171 175 172 162 176 174 176 186 185 189 189 189 191 192 183 185 181 176 176 177 182 185 188 186 183 183 176 182 191 186 174 168 160
306 289 170 195 179 172 195 181 174 167 165 162 153 173 182 190 178 183 188 194 191 186 185 192 196 189 188 187 184 181 185 189 183 184 185 181 179 178 174 177 167 167 167
289 309 265 237 225 211 196 183 189 180 163 158 159 168 188 194 192 192 190 186 181 189 183 187 192 187 186 190 188 190 189 195 190 180 180 179 180 178 173 181 174 169 173
224 238 250 259 192 212 203 220 197 199 181 168 180 179 190 197 196 199 190 184 187 190 191 199 202 200 195 195 192 197 202 180 168 182 178 181 182 176 171 172 178 176 170
249 221 207 212 212 213 213 214 207 201 198 189 189 186 189 200 204 203 194 189 192 192 198 195 197 203 201 197 197 196 189 173 174 178 185 183 182 177 174 175 174 169 165
240 236 219 200 207 199 201 201 205 205 208 209 205 205 202 205 209 207 198 195 196 198 195 196 202 200 196 198 199 191 182 178 181 182 176 178 176 175 172 172 170 165 164